Weather History for Thermopolis, WY

Change the Weather History Date:

Friday, July 5, 2013

  Actual Average (KWRL) Record (KWRL)
Temperature  
Mean Temperature 63 °F 70 °F  
Max Temperature 75 °F 87 °F 106 °F (1973)
Min Temperature 51 °F 54 °F 43 °F (1972)
Degree Days  
Heating Degree Days 2 1  
Month to date heating degree days 5  
Since 1 June heating degree days 98  
Since 1 July heating degree days 5  
Cooling Degree Days 0 6  
Month to date cooling degree days 29  
Year to date cooling degree days 125  
Since 1 June cooling degree days 113  
Growing Degree Days 13 (Base 50)    
Moisture  
Dew Point 51 °F    
Average Humidity 70    
Maximum Humidity 100    
Minimum Humidity 29    
Precipitation  
Precipitation 0.00 in 0.02 in 0.67 in (1993)
Month to date precipitation 0.10  
Year to date precipitation 4.41  
Sea Level Pressure  
Sea Level Pressure 30.14 in    
Wind  
Wind Speed 12 mph (ENE)    
Max Wind Speed 33 mph    
Max Gust Speed 39 mph    
Visibility 8 miles    
Events Fog , Rain    
T = Trace of Precipitation, MM = Missing Value Source: NWS Daily Summary

Daily Weather History Graph

Daily Weather History Graph

Search for Another Location

Airport:

Trip Planner

Search our weather history database for the weather conditions in past years. The results will help you decide how hot, cold, wet, or windy it might be!

Date:

Astronomy

Jul. 05, 2013 Rise Set
Actual Time 5:38 AM MDT 8:56 PM MDT
Civil Twilight 5:03 AM MDT 9:31 PM MDT
Nautical Twilight 4:17 AM MDT 10:17 PM MDT
Astronomical Twilight 3:20 AM MDT 11:13 PM MDT
Moon 3:41 AM MDT (7/5) 6:52 PM MDT (7/5)
Length of Visible Light 16h 28m
Length of Day
15h 17m
Waning Crescent, 6% of the Moon is Illuminated
Jul 5
Waning Crescent
Jul 8
New
Jul 15
First Quarter
Jul 22
Full
Jul 29
Last Quarter

Hourly Weather History & Observations

Time (MDT) Temp. Dew Point Humidity Pressure Visibility Wind Dir Wind Speed Gust Speed Precip Events Conditions
12:15 AM 59.0 °F 51.8 °F 77% 30.22 in 10.0 mi NNW 3.5 mph - N/A   Mostly Cloudy
12:35 AM 59.0 °F 50.0 °F 72% 30.21 in 10.0 mi Calm Calm - N/A   Scattered Clouds
12:55 AM 59.0 °F 50.0 °F 72% 30.21 in 10.0 mi Calm Calm - N/A   Clear
1:15 AM 59.0 °F 50.0 °F 72% 30.20 in 10.0 mi SE 8.1 mph - N/A   Clear
1:35 AM 57.2 °F 51.8 °F 82% 30.19 in 10.0 mi SE 11.5 mph - N/A   Clear
1:55 AM 55.4 °F 51.8 °F 88% 30.19 in 10.0 mi SE 12.7 mph - N/A   Scattered Clouds
2:15 AM 55.4 °F 53.6 °F 94% 30.18 in 7.0 mi SE 18.4 mph - N/A   Scattered Clouds
2:35 AM 55.4 °F 53.6 °F 94% 30.17 in 0.2 mi SE 23.0 mph 27.6 mph N/A Fog Fog
2:55 AM 55.4 °F 53.6 °F 94% 30.15 in 0.2 mi SE 25.3 mph 31.1 mph N/A Fog Fog
3:15 AM 53.6 °F 53.6 °F 100% 30.15 in 0.2 mi SE 25.3 mph 29.9 mph N/A Fog Fog
3:35 AM 53.6 °F 53.6 °F 100% 30.15 in 0.2 mi SE 24.2 mph - N/A Fog Fog
3:55 AM 53.6 °F 53.6 °F 100% 30.14 in 0.2 mi SE 25.3 mph - N/A Fog Fog
4:15 AM 53.6 °F 53.6 °F 100% 30.14 in 0.2 mi SE 21.9 mph - N/A Fog Fog
4:35 AM 53.6 °F 51.8 °F 94% 30.14 in 0.2 mi SE 23.0 mph 28.8 mph N/A Fog Fog
4:55 AM 53.6 °F 51.8 °F 94% 30.14 in 0.2 mi SE 18.4 mph - N/A Fog Fog
5:15 AM 51.8 °F 51.8 °F 100% 30.14 in 0.2 mi SE 19.6 mph - N/A Fog Fog
5:35 AM 51.8 °F 51.8 °F 100% 30.13 in 0.2 mi SE 16.1 mph - N/A Fog Fog
5:55 AM 51.8 °F 51.8 °F 100% 30.13 in 0.2 mi SE 16.1 mph - N/A Fog Fog
6:15 AM 53.6 °F 51.8 °F 94% 30.13 in 5.0 mi SE 12.7 mph - N/A   Scattered Clouds
6:35 AM 53.6 °F 51.8 °F 94% 30.14 in 10.0 mi SSE 8.1 mph - N/A   Scattered Clouds
6:55 AM 55.4 °F 53.6 °F 94% 30.14 in 10.0 mi South 13.8 mph - N/A   Clear
7:15 AM 53.6 °F 53.6 °F 100% 30.14 in 7.0 mi SSE 6.9 mph - N/A   Clear
7:35 AM 57.2 °F 53.6 °F 88% 30.14 in 10.0 mi South 11.5 mph - N/A   Scattered Clouds
7:55 AM 60.8 °F 50.0 °F 68% 30.14 in 10.0 mi WNW 8.1 mph - N/A   Mostly Cloudy
8:15 AM 60.8 °F 53.6 °F 77% 30.15 in 10.0 mi West 5.8 mph - N/A   Scattered Clouds
8:35 AM 62.6 °F 51.8 °F 68% 30.14 in 10.0 mi SSE 4.6 mph - N/A   Clear
8:55 AM 60.8 °F 53.6 °F 77% 30.15 in 10.0 mi South 3.5 mph - N/A   Clear
9:15 AM 60.8 °F 55.4 °F 82% 30.15 in 10.0 mi SSE 3.5 mph - N/A   Clear
9:35 AM 62.6 °F 55.4 °F 77% 30.15 in 10.0 mi Calm Calm - N/A   Scattered Clouds
9:55 AM 64.4 °F 53.6 °F 68% 30.14 in 10.0 mi SSE 4.6 mph - N/A   Mostly Cloudy
10:15 AM 62.6 °F 55.4 °F 77% 30.15 in 10.0 mi SE 5.8 mph - N/A   Scattered Clouds
10:35 AM 62.6 °F 55.4 °F 77% 30.14 in 10.0 mi ESE 8.1 mph - N/A   Mostly Cloudy
10:55 AM 64.4 °F 55.4 °F 73% 30.15 in 10.0 mi SE 8.1 mph - N/A   Mostly Cloudy
11:15 AM 62.6 °F 55.4 °F 77% 30.16 in 10.0 mi South 5.8 mph - N/A   Scattered Clouds
11:35 AM 64.4 °F 55.4 °F 73% 30.16 in 10.0 mi SSE 3.5 mph - N/A   Scattered Clouds
11:55 AM 64.4 °F 55.4 °F 73% 30.16 in 10.0 mi East 4.6 mph - N/A   Mostly Cloudy
12:15 PM 69.8 °F 51.8 °F 53% 30.16 in 10.0 mi Calm Calm - N/A   Mostly Cloudy
12:35 PM 69.8 °F 51.8 °F 53% 30.16 in 10.0 mi NNE 9.2 mph - N/A   Scattered Clouds
12:55 PM 69.8 °F 50.0 °F 49% 30.16 in 10.0 mi North 5.8 mph - N/A   Clear
1:15 PM 71.6 °F 44.6 °F 38% 30.16 in 10.0 mi North 15.0 mph 18.4 mph N/A   Scattered Clouds
1:35 PM 69.8 °F 44.6 °F 40% 30.15 in 10.0 mi North 16.1 mph - N/A   Overcast
1:55 PM 69.8 °F 44.6 °F 40% 30.15 in 10.0 mi North 15.0 mph - N/A   Mostly Cloudy
2:15 PM 69.8 °F 44.6 °F 40% 30.15 in 10.0 mi North 8.1 mph - N/A   Scattered Clouds
2:35 PM 71.6 °F 42.8 °F 35% 30.14 in 10.0 mi NW 6.9 mph - N/A   Scattered Clouds
2:55 PM 71.6 °F 42.8 °F 35% 30.14 in 10.0 mi NW 8.1 mph - N/A   Scattered Clouds
3:15 PM 73.4 °F 42.8 °F 33% 30.13 in 10.0 mi North 10.4 mph - N/A   Clear
3:35 PM 75.2 °F 42.8 °F 31% 30.13 in 10.0 mi NNE 8.1 mph - N/A   Scattered Clouds
3:55 PM 73.4 °F 41.0 °F 31% 30.11 in 10.0 mi East 5.8 mph - N/A   Mostly Cloudy
4:15 PM 73.4 °F 42.8 °F 33% 30.10 in 10.0 mi SE 17.3 mph 20.7 mph N/A   Overcast
4:35 PM 75.2 °F 41.0 °F 29% 30.10 in 10.0 mi SSE 8.1 mph 23.0 mph N/A   Mostly Cloudy
4:55 PM 75.2 °F 42.8 °F 31% 30.10 in 10.0 mi SE 11.5 mph 16.1 mph N/A   Mostly Cloudy
5:15 PM 62.6 °F 51.8 °F 68% 30.12 in 10.0 mi WNW 33.4 mph 39.1 mph N/A   Mostly Cloudy
5:35 PM 59.0 °F 53.6 °F 82% 30.12 in 10.0 mi NW 27.6 mph - N/A Rain Light Rain
5:55 PM 60.8 °F 51.8 °F 72% 30.11 in 10.0 mi NW 25.3 mph 33.4 mph N/A   Scattered Clouds
6:15 PM 62.6 °F 51.8 °F 68% 30.11 in 10.0 mi NNW 26.5 mph - N/A   Scattered Clouds
6:35 PM 62.6 °F 51.8 °F 68% 30.10 in 10.0 mi NNW 21.9 mph - N/A   Scattered Clouds
6:55 PM 62.6 °F 51.8 °F 68% 30.10 in 10.0 mi NW 25.3 mph - N/A   Clear
7:15 PM 60.8 °F 51.8 °F 72% 30.10 in 10.0 mi NW 28.8 mph - N/A   Clear
7:35 PM 60.8 °F 53.6 °F 77% 30.10 in 10.0 mi NW 24.2 mph - N/A   Clear
7:55 PM 60.8 °F 53.6 °F 77% 30.11 in 10.0 mi NW 25.3 mph - N/A Rain Light Rain
8:15 PM 60.8 °F 51.8 °F 72% 30.10 in 10.0 mi NNW 20.7 mph 31.1 mph N/A Rain Light Rain
8:35 PM 60.8 °F 51.8 °F 72% 30.11 in 10.0 mi NW 17.3 mph - N/A   Mostly Cloudy
8:55 PM 60.8 °F 51.8 °F 72% 30.12 in 10.0 mi NW 20.7 mph - N/A   Scattered Clouds
9:15 PM 59.0 °F 51.8 °F 77% 30.12 in 10.0 mi NW 19.6 mph - N/A   Clear
9:35 PM 60.8 °F 51.8 °F 72% 30.13 in 10.0 mi NW 17.3 mph - N/A   Scattered Clouds
9:55 PM 60.8 °F 50.0 °F 68% 30.13 in 10.0 mi NW 18.4 mph - N/A   Scattered Clouds
10:15 PM 60.8 °F 48.2 °F 63% 30.14 in 10.0 mi NW 12.7 mph - N/A   Clear
10:35 PM 60.8 °F 46.4 °F 59% 30.16 in 10.0 mi NW 11.5 mph - N/A   Clear
10:55 PM 60.8 °F 44.6 °F 55% 30.16 in 10.0 mi NW 11.5 mph - N/A   Clear
11:15 PM 60.8 °F 44.6 °F 55% 30.16 in 10.0 mi NW 12.7 mph - N/A   Clear
11:35 PM 60.8 °F 46.4 °F 59% 30.17 in 10.0 mi NW 13.8 mph - N/A   Scattered Clouds
11:55 PM 60.8 °F 46.4 °F 59% 30.17 in 10.0 mi NW 15.0 mph - N/A   Scattered Clouds